Terminal Aerodrome Forecast
Issued by NWS Pittsburgh, PA

Current Version | Previous Version | Graphics & Text | Print | Product List | Glossary On
Versions: 1 2 3 4 5 6 7 8 9 10 11 12 13 14 15 16 17 18 19 20 21 22 23 24 25 26 27 28 29
000
FTUS41 KPBZ 201100 RRA
TAFPIT
TAF
KPIT 201153Z 2012/2118 15008KT P6SM SCT050
     FM201500 19010G20KT P6SM BKN040 BKN250
     FM202200 18005KT P6SM BKN100 BKN250
     FM211000 21006KT P6SM -SHRA OVC030=

USA.gov is the U.S. government's official web portal to all federal, state and local government web resources and services.